Time,TemperatureF,DewpointF,PressureIn,WindDirection,WindDirectionDegrees,WindSpeedMPH,WindSpeedGustMPH,Humidity,HourlyPrecipIn,Conditions,Clouds,dailyrainin,SolarRadiationWatts/m^2,SoftwareType,DateUTC
2013-04-08 00:00:00,56.3,43.4,29.99,NW,313,0.0,0.0,62,0.00,,,0.00,0,WeatherCatV1.15B25,2013-04-08 04:00:00,
2013-04-08 00:01:00,56.3,43.4,29.99,NW,313,0.0,0.0,62,0.00,,,0.00,0,WeatherCatV1.15B25,2013-04-08 04:01:00,
2013-04-08 00:04:00,56.2,43.8,29.99,NW,313,1.0,1.0,63,0.00,,,0.00,0,WeatherCatV1.15B25,2013-04-08 04:04:00,
2013-04-08 00:08:00,55.9,43.5,29.99,NW,313,1.0,1.0,63,0.00,,,0.00,0,WeatherCatV1.15B25,2013-04-08 04:08:00,
2013-04-08 00:09:00,55.9,43.5,29.99,NW,313,0.0,1.0,63,0.00,,,0.00,0,WeatherCatV1.15B25,2013-04-08 04:09:00,
2013-04-08 00:14:00,55.8,43.8,29.99,NW,313,1.0,1.0,64,0.00,,,0.00,0,WeatherCatV1.15B25,2013-04-08 04:14:00,
2013-04-08 00:16:00,55.8,43.8,29.99,NW,313,0.0,0.0,64,0.00,,,0.00,0,WeatherCatV1.15B25,2013-04-08 04:16:00,
2013-04-08 00:21:00,55.7,44.1,29.99,NW,313,1.0,1.0,65,0.00,,,0.00,0,WeatherCatV1.15B25,2013-04-08 04:21:00,
2013-04-08 00:24:00,55.6,43.6,29.99,NW,313,0.0,1.0,64,0.00,,,0.00,0,WeatherCatV1.15B25,2013-04-08 04:24:00,
2013-04-08 00:29:00,55.5,44.3,29.99,NW,313,0.0,0.0,66,0.00,,,0.00,0,WeatherCatV1.15B25,2013-04-08 04:29:00,
2013-04-08 00:34:00,55.4,44.2,29.99,NW,313,0.0,1.0,66,0.00,,,0.00,0,WeatherCatV1.15B25,2013-04-08 04:34:00,
2013-04-08 00:38:00,55.3,44.1,29.99,NW,313,0.0,0.0,66,0.00,,,0.00,0,WeatherCatV1.15B25,2013-04-08 04:38:00,
2013-04-08 00:39:00,55.3,44.1,29.99,NW,313,0.0,0.0,66,0.00,,,0.00,0,WeatherCatV1.15B25,2013-04-08 04:39:00,
2013-04-08 00:44:00,55.3,44.1,29.99,NW,313,0.0,1.0,66,0.00,,,0.00,0,WeatherCatV1.15B25,2013-04-08 04:44:00,
2013-04-08 00:46:00,55.3,44.1,29.99,NW,314,0.0,1.0,66,0.00,,,0.00,0,WeatherCatV1.15B25,2013-04-08 04:46:00,
2013-04-08 00:49:00,55.2,44.0,29.99,NW,314,0.0,0.0,66,0.00,,,0.00,0,WeatherCatV1.15B25,2013-04-08 04:49:00,
2013-04-08 00:54:00,55.1,44.3,29.99,NW,314,0.0,0.0,67,0.00,,,0.00,0,WeatherCatV1.15B25,2013-04-08 04:54:00,
2013-04-08 00:59:00,55.1,44.3,29.99,NW,314,0.0,0.0,67,0.00,,,0.00,0,WeatherCatV1.15B25,2013-04-08 04:59:00,
2013-04-08 01:04:00,55.1,43.9,30.00,NW,314,0.0,0.0,66,0.00,,,0.00,0,WeatherCatV1.15B25,2013-04-08 05:04:00,
2013-04-08 01:09:00,55.1,43.9,30.00,NW,314,0.0,0.0,66,0.00,,,0.00,0,WeatherCatV1.15B25,2013-04-08 05:09:00,
2013-04-08 01:11:00,55.1,43.9,30.00,NW,314,0.0,0.0,66,0.00,,,0.00,0,WeatherCatV1.15B25,2013-04-08 05:11:00,
2013-04-08 01:14:00,55.1,44.3,30.00,NW,314,0.0,0.0,67,0.00,,,0.00,0,WeatherCatV1.15B25,2013-04-08 05:14:00,
2013-04-08 01:16:00,55.2,44.4,30.00,NW,314,0.0,0.0,67,0.00,,,0.00,0,WeatherCatV1.15B25,2013-04-08 05:16:00,
2013-04-08 01:21:00,55.1,43.9,30.00,NW,314,0.0,0.0,66,0.00,,,0.00,0,WeatherCatV1.15B25,2013-04-08 05:21:00,
2013-04-08 01:24:00,55.2,44.0,30.00,NW,314,0.0,0.0,66,0.00,,,0.00,0,WeatherCatV1.15B25,2013-04-08 05:24:00,
2013-04-08 01:26:00,55.2,44.0,30.00,NW,314,0.0,0.0,66,0.00,,,0.00,0,WeatherCatV1.15B25,2013-04-08 05:26:00,
2013-04-08 01:31:00,55.1,44.7,30.00,NW,314,0.0,0.0,68,0.00,,,0.00,0,WeatherCatV1.15B25,2013-04-08 05:31:00,
2013-04-08 01:34:00,55.0,44.2,30.00,NW,314,0.0,0.0,67,0.00,,,0.00,0,WeatherCatV1.15B25,2013-04-08 05:34:00,
2013-04-08 01:39:00,55.0,44.2,30.00,NW,314,0.0,0.0,67,0.00,,,0.00,0,WeatherCatV1.15B25,2013-04-08 05:39:00,
2013-04-08 01:44:00,55.0,44.6,30.00,NW,314,0.0,1.0,68,0.00,,,0.00,0,WeatherCatV1.15B25,2013-04-08 05:44:00,
2013-04-08 01:49:00,54.8,44.8,30.00,NW,314,1.0,1.0,69,0.00,,,0.00,0,WeatherCatV1.15B25,2013-04-08 05:49:00,
2013-04-08 01:54:00,54.7,44.7,30.00,NW,314,0.0,1.0,69,0.00,,,0.00,0,WeatherCatV1.15B25,2013-04-08 05:54:00,
2013-04-08 01:56:00,54.6,44.6,30.00,NW,314,0.0,0.0,69,0.00,,,0.00,0,WeatherCatV1.15B25,2013-04-08 05:56:00,
2013-04-08 01:59:00,54.6,44.6,30.00,NW,314,0.0,0.0,69,0.00,,,0.00,0,WeatherCatV1.15B25,2013-04-08 05:59:00,
2013-04-08 02:01:00,54.6,44.6,30.00,NW,314,0.0,1.0,69,0.00,,,0.00,0,WeatherCatV1.15B25,2013-04-08 06:01:00,
2013-04-08 02:04:00,54.6,44.6,30.00,NW,314,0.0,0.0,69,0.00,,,0.00,0,WeatherCatV1.15B25,2013-04-08 06:04:00,
2013-04-08 02:09:00,54.5,44.5,30.00,NW,314,0.0,0.0,69,0.00,,,0.00,0,WeatherCatV1.15B25,2013-04-08 06:09:00,
2013-04-08 02:14:00,54.4,44.4,30.00,NW,314,0.0,0.0,69,0.00,,,0.00,0,WeatherCatV1.15B25,2013-04-08 06:14:00,
2013-04-08 02:16:00,54.3,44.3,30.00,NW,314,0.0,0.0,69,0.00,,,0.00,0,WeatherCatV1.15B25,2013-04-08 06:16:00,
2013-04-08 02:19:00,54.2,44.3,30.00,NW,314,0.0,0.0,69,0.00,,,0.00,0,WeatherCatV1.15B25,2013-04-08 06:19:00,
2013-04-08 02:21:00,54.1,44.2,30.00,NW,314,0.0,0.0,69,0.00,,,0.00,0,WeatherCatV1.15B25,2013-04-08 06:21:00,
2013-04-08 02:24:00,54.1,44.5,30.00,NW,314,0.0,0.0,70,0.00,,,0.00,0,WeatherCatV1.15B25,2013-04-08 06:24:00,
2013-04-08 02:29:00,53.9,44.3,30.00,NW,314,0.0,0.0,70,0.00,,,0.00,0,WeatherCatV1.15B25,2013-04-08 06:29:00,
2013-04-08 02:31:00,53.8,44.2,30.00,NW,314,0.0,0.0,70,0.00,,,0.00,0,WeatherCatV1.15B25,2013-04-08 06:31:00,
2013-04-08 02:34:00,53.8,44.2,30.00,NW,314,0.0,0.0,70,0.00,,,0.00,0,WeatherCatV1.15B25,2013-04-08 06:34:00,
2013-04-08 02:39:00,53.6,44.1,30.00,NW,314,0.0,0.0,70,0.00,,,0.00,0,WeatherCatV1.15B25,2013-04-08 06:39:00,
2013-04-08 02:44:00,53.4,44.2,30.00,NW,314,1.0,2.0,71,0.00,,,0.00,0,WeatherCatV1.15B25,2013-04-08 06:44:00,
2013-04-08 02:46:00,53.3,44.5,30.00,NW,314,0.0,1.0,72,0.00,,,0.00,0,WeatherCatV1.15B25,2013-04-08 06:46:00,
2013-04-08 02:49:00,53.2,44.4,30.00,NW,314,0.0,0.0,72,0.00,,,0.00,0,WeatherCatV1.15B25,2013-04-08 06:49:00,
2013-04-08 02:51:00,53.0,44.2,30.00,NW,314,0.0,0.0,72,0.00,,,0.00,0,WeatherCatV1.15B25,2013-04-08 06:51:00,
2013-04-08 02:54:00,53.0,44.2,30.00,NW,314,0.0,1.0,72,0.00,,,0.00,0,WeatherCatV1.15B25,2013-04-08 06:54:00,
2013-04-08 02:58:00,52.8,44.4,30.00,NW,314,0.0,0.0,73,0.00,,,0.00,0,WeatherCatV1.15B25,2013-04-08 06:58:00,
2013-04-08 03:04:00,52.6,44.2,30.00,NW,314,0.0,1.0,73,0.00,,,0.00,0,WeatherCatV1.15B25,2013-04-08 07:04:00,
2013-04-08 03:06:00,52.6,44.2,30.00,NW,314,0.0,0.0,73,0.00,,,0.00,0,WeatherCatV1.15B25,2013-04-08 07:06:00,
2013-04-08 03:12:00,52.6,44.2,30.00,NW,314,1.0,1.0,73,0.00,,,0.00,0,WeatherCatV1.15B25,2013-04-08 07:12:00,
2013-04-08 03:14:00,52.6,44.2,30.00,NW,314,0.0,1.0,73,0.00,,,0.00,0,WeatherCatV1.15B25,2013-04-08 07:14:00,
2013-04-08 03:18:00,52.5,44.5,30.00,SW,235,1.0,3.0,74,0.00,,,0.00,0,WeatherCatV1.15B25,2013-04-08 07:18:00,
2013-04-08 03:23:00,52.7,44.3,30.00,WSW,237,2.0,3.0,73,0.00,,,0.00,0,WeatherCatV1.15B25,2013-04-08 07:23:00,
2013-04-08 03:24:00,52.7,44.3,30.00,WSW,237,2.0,3.0,73,0.00,,,0.00,0,WeatherCatV1.15B25,2013-04-08 07:24:00,
2013-04-08 03:26:00,53.1,44.7,30.00,WSW,240,2.0,3.0,73,0.00,,,0.00,0,WeatherCatV1.15B25,2013-04-08 07:26:00,
2013-04-08 03:31:00,53.0,44.2,30.00,WSW,240,1.0,2.0,72,0.00,,,0.00,0,WeatherCatV1.15B25,2013-04-08 07:31:00,
2013-04-08 03:36:00,52.9,44.1,30.00,WSW,240,1.0,1.0,72,0.00,,,0.00,0,WeatherCatV1.15B25,2013-04-08 07:36:00,
2013-04-08 03:41:00,52.8,44.0,30.00,WSW,240,1.0,2.0,72,0.00,,,0.00,0,WeatherCatV1.15B25,2013-04-08 07:41:00,
2013-04-08 03:44:00,52.8,44.0,30.00,WSW,240,1.0,1.0,72,0.00,,,0.00,0,WeatherCatV1.15B25,2013-04-08 07:44:00,
2013-04-08 03:46:00,52.8,44.0,30.00,WSW,240,1.0,1.0,72,0.00,,,0.00,0,WeatherCatV1.15B25,2013-04-08 07:46:00,
2013-04-08 03:49:00,52.8,44.4,30.00,WSW,240,1.0,1.0,73,0.00,,,0.00,0,WeatherCatV1.15B25,2013-04-08 07:49:00,
2013-04-08 03:51:00,52.7,44.3,30.00,WSW,240,0.0,2.0,73,0.00,,,0.00,0,WeatherCatV1.15B25,2013-04-08 07:51:00,
2013-04-08 03:54:00,52.7,44.3,30.00,WSW,240,1.0,1.0,73,0.00,,,0.00,0,WeatherCatV1.15B25,2013-04-08 07:54:00,
2013-04-08 03:59:00,52.4,44.0,30.00,WSW,252,0.0,1.0,73,0.00,,,0.00,0,WeatherCatV1.15B25,2013-04-08 07:59:00,
2013-04-08 04:01:00,52.3,43.9,30.00,WSW,252,0.0,1.0,73,0.00,,,0.00,0,WeatherCatV1.15B25,2013-04-08 08:01:00,
2013-04-08 04:04:00,52.2,44.2,30.00,WSW,252,0.0,1.0,74,0.00,,,0.00,0,WeatherCatV1.15B25,2013-04-08 08:04:00,
2013-04-08 04:09:00,51.9,43.9,30.00,West,277,1.0,2.0,74,0.00,,,0.00,0,WeatherCatV1.15B25,2013-04-08 08:09:00,
2013-04-08 04:11:00,51.7,43.7,30.00,West,276,0.0,2.0,74,0.00,,,0.00,0,WeatherCatV1.15B25,2013-04-08 08:11:00,
2013-04-08 04:16:00,51.5,43.8,30.00,West,276,1.0,2.0,75,0.00,,,0.00,0,WeatherCatV1.15B25,2013-04-08 08:16:00,
2013-04-08 04:19:00,51.4,43.7,30.00,West,276,1.0,1.0,75,0.00,,,0.00,0,WeatherCatV1.15B25,2013-04-08 08:19:00,
2013-04-08 04:24:00,51.5,43.8,30.00,West,276,0.0,0.0,75,0.00,,,0.00,0,WeatherCatV1.15B25,2013-04-08 08:24:00,
2013-04-08 04:26:00,51.5,43.8,30.00,West,276,0.0,0.0,75,0.00,,,0.00,0,WeatherCatV1.15B25,2013-04-08 08:26:00,
2013-04-08 04:31:00,51.7,44.0,30.01,SSW,192,0.0,1.0,75,0.00,,,0.00,0,WeatherCatV1.15B25,2013-04-08 08:31:00,
2013-04-08 04:34:00,51.5,43.8,30.00,SSW,192,0.0,0.0,75,0.00,,,0.00,0,WeatherCatV1.15B25,2013-04-08 08:34:00,
2013-04-08 04:39:00,51.2,43.9,30.01,SSW,192,0.0,0.0,76,0.00,,,0.00,0,WeatherCatV1.15B25,2013-04-08 08:39:00,
2013-04-08 04:44:00,50.9,43.3,30.01,SSW,192,0.0,0.0,75,0.00,,,0.00,0,WeatherCatV1.15B25,2013-04-08 08:44:00,
2013-04-08 04:49:00,50.6,43.0,30.01,SSW,192,0.0,0.0,75,0.00,,,0.00,0,WeatherCatV1.15B25,2013-04-08 08:49:00,
2013-04-08 04:54:00,50.4,43.5,30.01,SSW,192,0.0,0.0,77,0.00,,,0.00,0,WeatherCatV1.15B25,2013-04-08 08:54:00,
2013-04-08 04:59:00,50.1,43.2,30.01,SSW,192,0.0,0.0,77,0.00,,,0.00,0,WeatherCatV1.15B25,2013-04-08 08:59:00,
2013-04-08 05:01:00,50.0,43.1,30.01,SSW,192,0.0,0.0,77,0.00,,,0.00,0,WeatherCatV1.15B25,2013-04-08 09:01:00,
2013-04-08 05:06:00,49.7,42.8,30.01,WSW,250,0.0,2.0,77,0.00,,,0.00,0,WeatherCatV1.15B25,2013-04-08 09:06:00,
2013-04-08 05:09:00,49.5,42.6,30.01,WSW,250,0.0,1.0,77,0.00,,,0.00,0,WeatherCatV1.15B25,2013-04-08 09:09:00,
2013-04-08 05:14:00,49.2,42.6,30.01,WSW,250,0.0,1.0,78,0.00,,,0.00,0,WeatherCatV1.15B25,2013-04-08 09:14:00,
2013-04-08 05:16:00,49.1,42.5,30.01,WSW,250,1.0,1.0,78,0.00,,,0.00,0,WeatherCatV1.15B25,2013-04-08 09:16:00,
2013-04-08 05:21:00,48.9,42.3,30.01,WSW,250,0.0,0.0,78,0.00,,,0.00,0,WeatherCatV1.15B25,2013-04-08 09:21:00,
2013-04-08 05:24:00,48.9,42.7,30.01,WSW,250,0.0,0.0,79,0.00,,,0.00,0,WeatherCatV1.15B25,2013-04-08 09:24:00,
2013-04-08 05:29:00,48.7,42.2,30.01,WSW,250,0.0,0.0,78,0.00,,,0.00,0,WeatherCatV1.15B25,2013-04-08 09:29:00,
2013-04-08 05:31:00,48.5,42.0,30.01,WSW,250,0.0,0.0,78,0.00,,,0.00,0,WeatherCatV1.15B25,2013-04-08 09:31:00,
2013-04-08 05:34:00,48.4,42.2,30.01,WSW,250,0.0,0.0,79,0.00,,,0.00,0,WeatherCatV1.15B25,2013-04-08 09:34:00,
2013-04-08 05:39:00,48.2,42.0,30.01,WSW,250,0.0,0.0,79,0.00,,,0.00,0,WeatherCatV1.15B25,2013-04-08 09:39:00,
2013-04-08 05:44:00,48.0,42.1,30.01,WSW,250,0.0,0.0,80,0.00,,,0.00,0,WeatherCatV1.15B25,2013-04-08 09:44:00,
2013-04-08 05:46:00,47.9,41.7,30.01,WSW,250,0.0,0.0,79,0.00,,,0.00,0,WeatherCatV1.15B25,2013-04-08 09:46:00,
2013-04-08 05:49:00,47.8,41.9,30.01,WSW,250,0.0,0.0,80,0.00,,,0.00,0,WeatherCatV1.15B25,2013-04-08 09:49:00,
2013-04-08 05:54:00,47.7,41.8,30.01,WSW,250,0.0,1.0,80,0.00,,,0.00,0,WeatherCatV1.15B25,2013-04-08 09:54:00,
2013-04-08 05:56:00,47.6,41.7,30.01,WSW,250,0.0,0.0,80,0.00,,,0.00,0,WeatherCatV1.15B25,2013-04-08 09:56:00,
2013-04-08 05:58:00,47.5,41.6,30.01,WSW,250,0.0,0.0,80,0.00,,,0.00,0,WeatherCatV1.15B25,2013-04-08 09:58:00,
2013-04-08 06:01:00,47.4,41.5,30.01,WSW,250,0.0,0.0,80,0.00,,,0.00,0,WeatherCatV1.15B25,2013-04-08 10:01:00,
2013-04-08 06:06:00,47.2,41.3,30.02,WSW,250,0.0,0.0,80,0.00,,,0.00,0,WeatherCatV1.15B25,2013-04-08 10:06:00,
2013-04-08 06:11:00,47.0,41.5,30.02,WSW,250,0.0,0.0,81,0.00,,,0.00,0,WeatherCatV1.15B25,2013-04-08 10:11:00,
2013-04-08 06:16:00,46.9,41.7,30.02,WSW,250,0.0,0.0,82,0.00,,,0.00,0,WeatherCatV1.15B25,2013-04-08 10:16:00,
2013-04-08 06:19:00,46.8,41.6,30.02,WSW,250,0.0,0.0,82,0.00,,,0.00,0,WeatherCatV1.15B25,2013-04-08 10:19:00,
2013-04-08 06:21:00,46.7,41.5,30.02,WSW,250,0.0,0.0,82,0.00,,,0.00,0,WeatherCatV1.15B25,2013-04-08 10:21:00,
2013-04-08 06:26:00,46.5,41.0,30.02,WSW,250,0.0,0.0,81,0.00,,,0.00,0,WeatherCatV1.15B25,2013-04-08 10:26:00,
2013-04-08 06:29:00,46.4,41.2,30.02,WSW,250,0.0,0.0,82,0.00,,,0.00,0,WeatherCatV1.15B25,2013-04-08 10:29:00,
2013-04-08 06:31:00,46.3,41.1,30.02,WSW,250,0.0,0.0,82,0.00,,,0.00,0,WeatherCatV1.15B25,2013-04-08 10:31:00,
2013-04-08 06:36:00,46.3,41.1,30.03,WSW,250,0.0,0.0,82,0.00,,,0.00,0,WeatherCatV1.15B25,2013-04-08 10:36:00,
2013-04-08 06:41:00,46.2,41.0,30.03,WSW,250,0.0,0.0,82,0.00,,,0.00,0,WeatherCatV1.15B25,2013-04-08 10:41:00,
2013-04-08 06:44:00,46.2,41.0,30.03,WSW,250,0.0,0.0,82,0.00,,,0.00,0,WeatherCatV1.15B25,2013-04-08 10:44:00,
2013-04-08 06:49:00,46.0,40.8,30.03,WSW,250,0.0,1.0,82,0.00,,,0.00,5,WeatherCatV1.15B25,2013-04-08 10:49:00,
2013-04-08 06:54:00,45.8,40.9,30.04,WSW,250,0.0,0.0,83,0.00,,,0.00,9,WeatherCatV1.15B25,2013-04-08 10:54:00,
2013-04-08 06:59:00,45.6,40.7,30.04,WSW,250,0.0,0.0,83,0.00,,,0.00,14,WeatherCatV1.15B25,2013-04-08 10:59:00,
2013-04-08 07:01:00,45.5,40.6,30.04,WSW,250,0.0,0.0,83,0.00,,,0.00,16,WeatherCatV1.15B25,2013-04-08 11:01:00,
2013-04-08 07:06:00,45.4,40.5,30.04,WSW,250,0.0,0.0,83,0.00,,,0.00,21,WeatherCatV1.15B25,2013-04-08 11:06:00,
2013-04-08 07:08:00,45.5,40.6,30.04,WSW,250,0.0,0.0,83,0.00,,,0.00,23,WeatherCatV1.15B25,2013-04-08 11:08:00,
2013-04-08 07:09:00,45.5,40.6,30.04,WSW,250,0.0,0.0,83,0.00,,,0.00,23,WeatherCatV1.15B25,2013-04-08 11:09:00,
2013-04-08 07:11:00,45.4,40.5,30.04,WSW,250,0.0,0.0,83,0.00,,,0.00,23,WeatherCatV1.15B25,2013-04-08 11:11:00,
2013-04-08 07:14:00,45.4,40.5,30.04,WSW,250,0.0,0.0,83,0.00,,,0.00,25,WeatherCatV1.15B25,2013-04-08 11:14:00,
2013-04-08 07:16:00,45.4,40.5,30.04,WSW,250,0.0,0.0,83,0.00,,,0.00,26,WeatherCatV1.15B25,2013-04-08 11:16:00,
2013-04-08 07:19:00,45.4,40.5,30.04,WSW,250,0.0,0.0,83,0.00,,,0.00,28,WeatherCatV1.15B25,2013-04-08 11:19:00,
2013-04-08 07:22:00,45.4,40.5,30.05,WSW,250,0.0,0.0,83,0.00,,,0.00,40,WeatherCatV1.15B25,2013-04-08 11:22:00,
2013-04-08 07:24:00,45.4,40.5,30.05,WSW,250,0.0,0.0,83,0.00,,,0.00,39,WeatherCatV1.15B25,2013-04-08 11:24:00,
2013-04-08 07:26:00,45.4,40.5,30.04,WSW,250,0.0,0.0,83,0.00,,,0.00,39,WeatherCatV1.15B25,2013-04-08 11:26:00,
2013-04-08 07:29:00,45.5,40.6,30.04,WSW,250,0.0,0.0,83,0.00,,,0.00,40,WeatherCatV1.15B25,2013-04-08 11:29:00,
2013-04-08 07:34:00,45.6,40.7,30.05,WSW,250,0.0,0.0,83,0.00,,,0.00,77,WeatherCatV1.15B25,2013-04-08 11:34:00,
2013-04-08 07:39:00,46.0,41.1,30.05,WSW,250,0.0,0.0,83,0.00,,,0.00,91,WeatherCatV1.15B25,2013-04-08 11:39:00,
2013-04-08 07:41:00,46.3,41.4,30.05,WSW,250,0.0,0.0,83,0.00,,,0.00,97,WeatherCatV1.15B25,2013-04-08 11:41:00,
2013-04-08 07:47:00,46.9,42.0,30.05,WSW,250,0.0,0.0,83,0.00,,,0.00,91,WeatherCatV1.15B25,2013-04-08 11:47:00,
2013-04-08 07:49:00,47.2,42.3,30.05,WSW,250,0.0,0.0,83,0.00,,,0.00,76,WeatherCatV1.15B25,2013-04-08 11:49:00,
2013-04-08 07:51:00,47.5,42.3,30.05,WSW,250,0.0,0.0,82,0.00,,,0.00,132,WeatherCatV1.15B25,2013-04-08 11:51:00,
2013-04-08 07:54:00,47.8,42.6,30.05,WSW,250,0.0,0.0,82,0.00,,,0.00,146,WeatherCatV1.15B25,2013-04-08 11:54:00,
2013-04-08 08:00:00,48.6,43.0,30.06,SW,224,0.0,1.0,81,0.00,,,0.00,174,WeatherCatV1.15B25,2013-04-08 12:00:00,
2013-04-08 08:01:00,48.7,43.5,30.06,SW,224,0.0,0.0,82,0.00,,,0.00,179,WeatherCatV1.15B25,2013-04-08 12:01:00,
2013-04-08 08:04:00,48.9,43.3,30.06,SW,224,0.0,0.0,81,0.00,,,0.00,192,WeatherCatV1.15B25,2013-04-08 12:04:00,
2013-04-08 08:05:00,49.1,43.8,30.06,SW,224,0.0,0.0,82,0.00,,,0.00,197,WeatherCatV1.15B25,2013-04-08 12:05:00,
2013-04-08 08:06:00,49.3,44.0,30.06,SW,224,0.0,0.0,82,0.00,,,0.00,199,WeatherCatV1.15B25,2013-04-08 12:06:00,
2013-04-08 08:11:00,50.1,44.5,30.06,NE,49,2.0,2.0,81,0.00,,,0.00,211,WeatherCatV1.15B25,2013-04-08 12:11:00,
2013-04-08 08:14:00,50.5,44.9,30.06,NE,49,1.0,2.0,81,0.00,,,0.00,214,WeatherCatV1.15B25,2013-04-08 12:14:00,
2013-04-08 08:19:00,51.4,45.4,30.06,ENE,73,0.0,2.0,80,0.00,,,0.00,232,WeatherCatV1.15B25,2013-04-08 12:19:00,
2013-04-08 08:24:00,52.3,45.3,30.07,ENE,73,1.0,2.0,77,0.00,,,0.00,257,WeatherCatV1.15B25,2013-04-08 12:24:00,
2013-04-08 08:29:00,52.9,45.9,30.07,ENE,73,0.0,1.0,77,0.00,,,0.00,269,WeatherCatV1.15B25,2013-04-08 12:29:00,
2013-04-08 08:31:00,53.3,45.9,30.07,ENE,69,2.0,3.0,76,0.00,,,0.00,269,WeatherCatV1.15B25,2013-04-08 12:31:00,
2013-04-08 08:34:00,53.6,45.9,30.07,ENE,67,1.0,2.0,75,0.00,,,0.00,288,WeatherCatV1.15B25,2013-04-08 12:34:00,
2013-04-08 08:36:00,53.8,46.1,30.07,NE,56,0.0,3.0,75,0.00,,,0.00,285,WeatherCatV1.15B25,2013-04-08 12:36:00,
2013-04-08 08:41:00,54.4,46.6,30.07,ENE,68,1.0,2.0,75,0.00,,,0.00,301,WeatherCatV1.15B25,2013-04-08 12:41:00,
2013-04-08 08:46:00,55.1,46.6,30.07,ENE,69,0.0,2.0,73,0.00,,,0.00,334,WeatherCatV1.15B25,2013-04-08 12:46:00,
2013-04-08 08:51:00,55.7,46.8,30.07,ESE,123,0.0,2.0,72,0.00,,,0.00,350,WeatherCatV1.15B25,2013-04-08 12:51:00,
2013-04-08 08:56:00,56.3,47.4,30.06,East,81,2.0,3.0,72,0.00,,,0.00,364,WeatherCatV1.15B25,2013-04-08 12:56:00,
2013-04-08 08:58:00,56.4,47.1,30.06,East,88,2.0,3.0,71,0.00,,,0.00,371,WeatherCatV1.15B25,2013-04-08 12:58:00,
2013-04-08 09:01:00,56.6,47.3,30.06,East,96,1.0,2.0,71,0.00,,,0.00,376,WeatherCatV1.15B25,2013-04-08 13:01:00,
2013-04-08 09:04:00,56.8,47.1,30.06,East,81,1.0,3.0,70,0.00,,,0.00,394,WeatherCatV1.15B25,2013-04-08 13:04:00,
2013-04-08 09:06:00,57.1,47.4,30.06,East,81,0.0,1.0,70,0.00,,,0.00,369,WeatherCatV1.15B25,2013-04-08 13:06:00,
2013-04-08 09:09:00,57.5,47.4,30.06,East,96,1.0,2.0,69,0.00,,,0.00,380,WeatherCatV1.15B25,2013-04-08 13:09:00,
2013-04-08 09:11:00,57.7,47.6,30.05,East,96,0.0,2.0,69,0.00,,,0.00,364,WeatherCatV1.15B25,2013-04-08 13:11:00,
2013-04-08 09:16:00,58.5,47.6,30.05,East,96,0.0,1.0,67,0.00,,,0.00,429,WeatherCatV1.15B25,2013-04-08 13:16:00,
2013-04-08 09:19:00,58.9,47.6,30.05,East,96,0.0,0.0,66,0.00,,,0.00,415,WeatherCatV1.15B25,2013-04-08 13:19:00,
2013-04-08 09:21:00,59.3,48.3,30.05,East,98,1.0,1.0,67,0.00,,,0.00,429,WeatherCatV1.15B25,2013-04-08 13:21:00,
2013-04-08 09:26:00,60.4,49.8,30.05,SSE,156,0.0,1.0,68,0.00,,,0.00,439,WeatherCatV1.15B25,2013-04-08 13:26:00,
2013-04-08 09:31:00,61.4,49.1,30.05,ESE,116,1.0,3.0,64,0.00,,,0.00,469,WeatherCatV1.15B25,2013-04-08 13:31:00,
2013-04-08 09:34:00,62.1,49.3,30.05,SW,227,2.0,2.0,63,0.00,,,0.00,480,WeatherCatV1.15B25,2013-04-08 13:34:00,
2013-04-08 09:36:00,62.6,49.0,30.05,WNW,282,0.0,2.0,61,0.00,,,0.00,490,WeatherCatV1.15B25,2013-04-08 13:36:00,
2013-04-08 09:39:00,63.2,49.5,30.05,South,175,1.0,3.0,61,0.00,,,0.00,499,WeatherCatV1.15B25,2013-04-08 13:39:00,
2013-04-08 09:44:00,64.4,49.3,30.05,SSW,211,2.0,3.0,58,0.00,,,0.00,452,WeatherCatV1.15B25,2013-04-08 13:44:00,
2013-04-08 09:46:00,64.7,48.6,30.05,SE,136,2.0,3.0,56,0.00,,,0.00,468,WeatherCatV1.15B25,2013-04-08 13:46:00,
2013-04-08 09:49:00,65.0,48.9,30.05,SE,131,1.0,2.0,56,0.00,,,0.00,483,WeatherCatV1.15B25,2013-04-08 13:49:00,
2013-04-08 09:51:00,65.4,49.3,30.05,SE,144,2.0,3.0,56,0.00,,,0.00,489,WeatherCatV1.15B25,2013-04-08 13:51:00,
2013-04-08 09:56:00,66.3,49.1,30.05,SE,142,2.0,4.0,54,0.00,,,0.00,499,WeatherCatV1.15B25,2013-04-08 13:56:00,
2013-04-08 09:59:00,66.5,49.3,30.05,SE,137,1.0,1.0,54,0.00,,,0.00,452,WeatherCatV1.15B25,2013-04-08 13:59:00,
2013-04-08 10:04:00,67.0,48.8,30.05,SE,124,3.0,3.0,52,0.00,,,0.00,519,WeatherCatV1.15B25,2013-04-08 14:04:00,
2013-04-08 10:06:00,67.4,49.7,30.05,SSE,160,4.0,5.0,53,0.00,,,0.00,519,WeatherCatV1.15B25,2013-04-08 14:06:00,
2013-04-08 10:09:00,67.9,49.6,30.05,ESE,116,1.0,3.0,52,0.00,,,0.00,573,WeatherCatV1.15B25,2013-04-08 14:09:00,
2013-04-08 10:14:00,68.6,49.7,30.05,North,7,0.0,3.0,51,0.00,,,0.00,543,WeatherCatV1.15B25,2013-04-08 14:14:00,
2013-04-08 10:16:00,69.1,48.6,30.05,SSE,158,3.0,5.0,48,0.00,,,0.00,510,WeatherCatV1.15B25,2013-04-08 14:16:00,
2013-04-08 10:19:00,69.5,48.9,30.05,SW,236,0.0,4.0,48,0.00,,,0.00,555,WeatherCatV1.15B25,2013-04-08 14:19:00,
2013-04-08 10:21:00,69.9,48.2,30.05,SSE,154,1.0,2.0,46,0.00,,,0.00,584,WeatherCatV1.15B25,2013-04-08 14:21:00,
2013-04-08 10:24:00,70.4,49.2,30.05,ESE,110,2.0,2.0,47,0.00,,,0.00,598,WeatherCatV1.15B25,2013-04-08 14:24:00,
2013-04-08 10:26:00,70.8,49.6,30.05,South,187,0.0,4.0,47,0.00,,,0.00,626,WeatherCatV1.15B25,2013-04-08 14:26:00,
2013-04-08 10:29:00,71.3,50.0,30.05,South,175,1.0,2.0,47,0.00,,,0.00,578,WeatherCatV1.15B25,2013-04-08 14:29:00,
2013-04-08 10:31:00,71.6,48.5,30.05,SSE,167,1.0,5.0,44,0.00,,,0.00,633,WeatherCatV1.15B25,2013-04-08 14:31:00,
2013-04-08 10:36:00,71.9,48.8,30.05,WSW,258,1.0,5.0,44,0.00,,,0.00,573,WeatherCatV1.15B25,2013-04-08 14:36:00,
2013-04-08 10:41:00,72.3,47.9,30.05,SE,129,1.0,5.0,42,0.00,,,0.00,633,WeatherCatV1.15B25,2013-04-08 14:41:00,
2013-04-08 10:46:00,72.7,48.3,30.04,SE,134,5.0,7.0,42,0.00,,,0.00,680,WeatherCatV1.15B25,2013-04-08 14:46:00,
2013-04-08 10:49:00,72.7,48.3,30.04,SE,124,1.0,5.0,42,0.00,,,0.00,686,WeatherCatV1.15B25,2013-04-08 14:49:00,
2013-04-08 10:51:00,72.9,48.4,30.04,SSW,198,1.0,7.0,42,0.00,,,0.00,659,WeatherCatV1.15B25,2013-04-08 14:51:00,
2013-04-08 10:56:00,73.5,48.3,30.04,South,186,1.0,6.0,41,0.00,,,0.00,570,WeatherCatV1.15B25,2013-04-08 14:56:00,
2013-04-08 10:59:00,73.8,48.6,30.04,SW,227,3.0,3.0,41,0.00,,,0.00,613,WeatherCatV1.15B25,2013-04-08 14:59:00,
2013-04-08 11:01:00,74.0,48.8,30.04,SSE,157,1.0,2.0,41,0.00,,,0.00,613,WeatherCatV1.15B25,2013-04-08 15:01:00,
2013-04-08 11:06:00,74.4,48.5,30.04,South,181,1.0,6.0,40,0.00,,,0.00,587,WeatherCatV1.15B25,2013-04-08 15:06:00,
2013-04-08 11:11:00,74.5,48.6,30.04,SSW,195,1.0,5.0,40,0.00,,,0.00,682,WeatherCatV1.15B25,2013-04-08 15:11:00,
2013-04-08 11:14:00,74.6,48.0,30.03,SSE,148,2.0,4.0,39,0.00,,,0.00,668,WeatherCatV1.15B25,2013-04-08 15:14:00,
2013-04-08 11:16:00,74.5,49.2,30.03,SE,133,3.0,6.0,41,0.00,,,0.00,680,WeatherCatV1.15B25,2013-04-08 15:16:00,
2013-04-08 11:19:00,74.4,48.5,30.03,SE,136,3.0,6.0,40,0.00,,,0.00,642,WeatherCatV1.15B25,2013-04-08 15:19:00,
2013-04-08 11:23:00,74.4,49.1,30.03,SSE,156,5.0,8.0,41,0.00,,,0.00,722,WeatherCatV1.15B25,2013-04-08 15:23:00,
2013-04-08 11:24:00,74.4,49.1,30.03,SE,132,4.0,8.0,41,0.00,,,0.00,722,WeatherCatV1.15B25,2013-04-08 15:24:00,
2013-04-08 11:29:00,73.8,49.9,30.03,SSW,200,4.0,7.0,43,0.00,,,0.00,705,WeatherCatV1.15B25,2013-04-08 15:29:00,
2013-04-08 11:34:00,74.1,50.8,30.03,SE,131,2.0,2.0,44,0.00,,,0.00,763,WeatherCatV1.15B25,2013-04-08 15:34:00,
2013-04-08 11:39:00,74.1,50.2,30.03,South,176,5.0,9.0,43,0.00,,,0.00,777,WeatherCatV1.15B25,2013-04-08 15:39:00,
2013-04-08 11:44:00,74.6,50.0,30.03,ESE,115,4.0,8.0,42,0.00,,,0.00,680,WeatherCatV1.15B25,2013-04-08 15:44:00,
2013-04-08 11:45:00,74.6,48.7,30.03,ESE,117,5.0,5.0,40,0.00,,,0.00,759,WeatherCatV1.15B25,2013-04-08 15:45:00,
2013-04-08 11:49:00,74.7,48.8,30.03,South,170,2.0,5.0,40,0.00,,,0.00,835,WeatherCatV1.15B25,2013-04-08 15:49:00,
2013-04-08 11:51:00,74.8,50.2,30.03,East,83,1.0,2.0,42,0.00,,,0.00,789,WeatherCatV1.15B25,2013-04-08 15:51:00,
2013-04-08 11:54:00,75.1,49.8,30.02,SW,229,3.0,4.0,41,0.00,,,0.00,812,WeatherCatV1.15B25,2013-04-08 15:54:00,
2013-04-08 11:56:00,75.5,49.5,30.02,South,175,2.0,2.0,40,0.00,,,0.00,810,WeatherCatV1.15B25,2013-04-08 15:56:00,
2013-04-08 11:59:00,75.8,49.7,30.03,WSW,252,0.0,2.0,40,0.00,,,0.00,803,WeatherCatV1.15B25,2013-04-08 15:59:00,
2013-04-08 12:03:00,76.0,48.5,30.03,NE,34,0.0,3.0,38,0.00,,,0.00,698,WeatherCatV1.15B25,2013-04-08 16:03:00,
2013-04-08 12:06:00,76.1,48.6,30.02,West,271,2.0,5.0,38,0.00,,,0.00,633,WeatherCatV1.15B25,2013-04-08 16:06:00,
2013-04-08 12:09:00,76.3,48.1,30.02,ENE,73,1.0,2.0,37,0.00,,,0.00,675,WeatherCatV1.15B25,2013-04-08 16:09:00,
2013-04-08 12:14:00,76.6,48.4,30.02,WSW,246,1.0,2.0,37,0.00,,,0.00,654,WeatherCatV1.15B25,2013-04-08 16:14:00,
2013-04-08 12:16:00,76.7,47.7,30.02,SSE,147,5.0,7.0,36,0.00,,,0.00,675,WeatherCatV1.15B25,2013-04-08 16:16:00,
2013-04-08 12:21:00,76.9,48.6,30.02,NE,43,1.0,2.0,37,0.00,,,0.00,668,WeatherCatV1.15B25,2013-04-08 16:21:00,
2013-04-08 12:24:00,77.1,48.1,30.02,SW,220,1.0,2.0,36,0.00,,,0.00,603,WeatherCatV1.15B25,2013-04-08 16:24:00,
2013-04-08 12:28:00,77.4,48.3,30.01,SSW,199,1.0,3.0,36,0.00,,,0.00,703,WeatherCatV1.15B25,2013-04-08 16:28:00,
2013-04-08 12:31:00,77.5,48.4,30.01,WSW,247,3.0,5.0,36,0.00,,,0.00,670,WeatherCatV1.15B25,2013-04-08 16:31:00,
2013-04-08 12:34:00,77.7,47.8,30.01,SSW,200,0.0,3.0,35,0.00,,,0.00,640,WeatherCatV1.15B25,2013-04-08 16:34:00,
2013-04-08 12:36:00,77.8,48.7,30.01,SSW,205,2.0,2.0,36,0.00,,,0.00,621,WeatherCatV1.15B25,2013-04-08 16:36:00,
2013-04-08 12:39:00,77.6,48.5,30.01,WSW,242,1.0,5.0,36,0.00,,,0.00,499,WeatherCatV1.15B25,2013-04-08 16:39:00,
2013-04-08 12:41:00,77.6,47.8,30.01,West,278,4.0,4.0,35,0.00,,,0.00,501,WeatherCatV1.15B25,2013-04-08 16:41:00,
2013-04-08 12:46:00,77.7,47.8,30.01,SSW,204,2.0,2.0,35,0.00,,,0.00,724,WeatherCatV1.15B25,2013-04-08 16:46:00,
2013-04-08 12:51:00,78.1,47.4,30.01,SSE,148,2.0,5.0,34,0.00,,,0.00,744,WeatherCatV1.15B25,2013-04-08 16:51:00,
2013-04-08 12:56:00,78.0,48.1,30.01,SE,129,5.0,5.0,35,0.00,,,0.00,724,WeatherCatV1.15B25,2013-04-08 16:56:00,
2013-04-08 12:57:00,78.0,46.5,30.01,East,101,2.0,5.0,33,0.00,,,0.00,814,WeatherCatV1.15B25,2013-04-08 16:57:00,
2013-04-08 13:02:00,77.7,47.1,30.00,SSE,150,4.0,7.0,34,0.00,,,0.00,838,WeatherCatV1.15B25,2013-04-08 17:02:00,
2013-04-08 13:07:00,77.5,46.9,30.00,SSW,208,1.0,7.0,34,0.00,,,0.00,775,WeatherCatV1.15B25,2013-04-08 17:07:00,
2013-04-08 13:11:00,77.6,47.0,30.00,SE,142,3.0,7.0,34,0.00,,,0.00,733,WeatherCatV1.15B25,2013-04-08 17:11:00,
2013-04-08 13:14:00,77.7,46.3,30.00,ENE,67,1.0,5.0,33,0.00,,,0.00,724,WeatherCatV1.15B25,2013-04-08 17:14:00,
2013-04-08 13:19:00,78.3,49.1,30.00,SSW,192,2.0,3.0,36,0.00,,,0.00,874,WeatherCatV1.15B25,2013-04-08 17:19:00,
2013-04-08 13:24:00,78.8,47.2,29.99,SSE,165,2.0,7.0,33,0.00,,,0.00,810,WeatherCatV1.15B25,2013-04-08 17:24:00,
2013-04-08 13:29:00,78.7,46.3,29.99,SW,219,3.0,5.0,32,0.00,,,0.00,888,WeatherCatV1.15B25,2013-04-08 17:29:00,
2013-04-08 13:34:00,78.4,47.7,29.99,SE,144,2.0,2.0,34,0.00,,,0.00,793,WeatherCatV1.15B25,2013-04-08 17:34:00,
2013-04-08 13:39:00,78.3,46.8,29.98,SE,130,5.0,8.0,33,0.00,,,0.00,780,WeatherCatV1.15B25,2013-04-08 17:39:00,
2013-04-08 13:41:00,78.4,46.9,29.98,ESE,117,7.0,9.0,33,0.00,,,0.00,846,WeatherCatV1.15B25,2013-04-08 17:41:00,
2013-04-08 13:46:00,78.5,47.0,29.98,SSE,153,2.0,5.0,33,0.00,,,0.00,893,WeatherCatV1.15B25,2013-04-08 17:46:00,
2013-04-08 13:49:00,79.0,47.4,29.98,SW,214,5.0,8.0,33,0.00,,,0.00,854,WeatherCatV1.15B25,2013-04-08 17:49:00,
2013-04-08 13:54:00,80.1,48.4,29.98,SE,142,7.0,7.0,33,0.00,,,0.00,156,WeatherCatV1.15B25,2013-04-08 17:54:00,
2013-04-08 13:56:00,80.0,46.6,29.97,SE,138,1.0,4.0,31,0.00,,,0.00,156,WeatherCatV1.15B25,2013-04-08 17:56:00,
2013-04-08 14:01:00,80.2,46.8,29.97,SE,133,4.0,6.0,31,0.00,,,0.00,893,WeatherCatV1.15B25,2013-04-08 18:01:00,
2013-04-08 14:04:00,79.8,46.5,29.97,SE,128,4.0,7.0,31,0.00,,,0.00,889,WeatherCatV1.15B25,2013-04-08 18:04:00,
2013-04-08 14:06:00,79.5,47.9,29.97,WSW,243,0.0,10.0,33,0.00,,,0.00,162,WeatherCatV1.15B25,2013-04-08 18:06:00,
2013-04-08 14:09:00,79.1,45.8,29.97,SE,137,5.0,9.0,31,0.00,,,0.00,287,WeatherCatV1.15B25,2013-04-08 18:09:00,
2013-04-08 14:11:00,78.3,46.0,29.97,South,180,0.0,12.0,32,0.00,,,0.00,513,WeatherCatV1.15B25,2013-04-08 18:11:00,
2013-04-08 14:14:00,78.3,46.8,29.97,South,191,1.0,7.0,33,0.00,,,0.00,766,WeatherCatV1.15B25,2013-04-08 18:14:00,
2013-04-08 14:16:00,78.5,47.0,29.97,South,188,1.0,4.0,33,0.00,,,0.00,886,WeatherCatV1.15B25,2013-04-08 18:16:00,
2013-04-08 14:19:00,78.6,45.4,29.97,SSE,156,2.0,9.0,31,0.00,,,0.00,886,WeatherCatV1.15B25,2013-04-08 18:19:00,
2013-04-08 14:21:00,78.8,46.4,29.97,SE,130,5.0,9.0,32,0.00,,,0.00,918,WeatherCatV1.15B25,2013-04-08 18:21:00,
2013-04-08 14:26:00,79.3,48.5,29.97,East,100,7.0,8.0,34,0.00,,,0.00,461,WeatherCatV1.15B25,2013-04-08 18:26:00,
2013-04-08 14:31:00,78.9,47.3,29.96,ESE,110,10.0,11.0,33,0.00,,,0.00,223,WeatherCatV1.15B25,2013-04-08 18:31:00,
2013-04-08 14:34:00,78.8,46.4,29.97,SSE,160,2.0,8.0,32,0.00,,,0.00,223,WeatherCatV1.15B25,2013-04-08 18:34:00,
2013-04-08 14:39:00,78.8,45.6,29.96,SE,124,3.0,3.0,31,0.00,,,0.00,294,WeatherCatV1.15B25,2013-04-08 18:39:00,
2013-04-08 14:44:00,78.5,46.2,29.96,SE,140,0.0,5.0,32,0.00,,,0.00,835,WeatherCatV1.15B25,2013-04-08 18:44:00,
2013-04-08 14:46:00,78.6,45.4,29.96,SE,129,4.0,5.0,31,0.00,,,0.00,439,WeatherCatV1.15B25,2013-04-08 18:46:00,
2013-04-08 14:49:00,78.9,47.3,29.95,South,176,2.0,4.0,33,0.00,,,0.00,798,WeatherCatV1.15B25,2013-04-08 18:49:00,
2013-04-08 14:51:00,79.1,45.8,29.95,ESE,112,3.0,3.0,31,0.00,,,0.00,406,WeatherCatV1.15B25,2013-04-08 18:51:00,
2013-04-08 14:54:00,79.2,45.9,29.95,SE,131,5.0,6.0,31,0.00,,,0.00,445,WeatherCatV1.15B25,2013-04-08 18:54:00,
2013-04-08 14:59:00,78.6,46.3,29.95,SE,124,4.0,4.0,32,0.00,,,0.00,360,WeatherCatV1.15B25,2013-04-08 18:59:00,
2013-04-08 15:01:00,78.6,45.4,29.95,WNW,287,2.0,8.0,31,0.00,,,0.00,374,WeatherCatV1.15B25,2013-04-08 19:01:00,
2013-04-08 15:04:00,78.6,46.3,29.95,West,279,5.0,8.0,32,0.00,,,0.00,332,WeatherCatV1.15B25,2013-04-08 19:04:00,
2013-04-08 15:09:00,78.9,45.7,29.94,SW,233,2.0,3.0,31,0.00,,,0.00,469,WeatherCatV1.15B25,2013-04-08 19:09:00,
2013-04-08 15:11:00,79.0,45.8,29.94,SSW,194,0.0,9.0,31,0.00,,,0.00,315,WeatherCatV1.15B25,2013-04-08 19:11:00,
2013-04-08 15:16:00,79.3,45.2,29.94,SW,235,3.0,3.0,30,0.00,,,0.00,403,WeatherCatV1.15B25,2013-04-08 19:16:00,
2013-04-08 15:21:00,79.5,45.3,29.94,NW,305,1.0,2.0,30,0.00,,,0.00,221,WeatherCatV1.15B25,2013-04-08 19:21:00,
2013-04-08 15:26:00,79.3,45.2,29.94,SW,228,3.0,5.0,30,0.00,,,0.00,211,WeatherCatV1.15B25,2013-04-08 19:26:00,
2013-04-08 15:28:00,79.3,46.0,29.94,SW,224,0.0,1.0,31,0.00,,,0.00,200,WeatherCatV1.15B25,2013-04-08 19:28:00,
2013-04-08 15:29:00,79.2,45.9,29.94,WSW,254,2.0,3.0,31,0.00,,,0.00,193,WeatherCatV1.15B25,2013-04-08 19:29:00,
2013-04-08 15:33:00,79.1,45.0,29.94,SW,233,1.0,2.0,30,0.00,,,0.00,220,WeatherCatV1.15B25,2013-04-08 19:33:00,
2013-04-08 15:36:00,79.0,45.8,29.93,SW,235,2.0,6.0,31,0.00,,,0.00,214,WeatherCatV1.15B25,2013-04-08 19:36:00,
2013-04-08 15:41:00,78.9,45.7,29.93,SSE,150,4.0,6.0,31,0.00,,,0.00,232,WeatherCatV1.15B25,2013-04-08 19:41:00,
2013-04-08 15:44:00,78.7,45.5,29.93,WSW,239,0.0,3.0,31,0.00,,,0.00,232,WeatherCatV1.15B25,2013-04-08 19:44:00,
2013-04-08 15:46:00,78.7,45.5,29.93,SSE,158,1.0,4.0,31,0.00,,,0.00,269,WeatherCatV1.15B25,2013-04-08 19:46:00,
2013-04-08 15:51:00,78.7,45.5,29.93,South,171,2.0,4.0,31,0.00,,,0.00,260,WeatherCatV1.15B25,2013-04-08 19:51:00,
2013-04-08 15:54:00,78.8,45.6,29.93,West,264,4.0,7.0,31,0.00,,,0.00,287,WeatherCatV1.15B25,2013-04-08 19:54:00,
2013-04-08 15:56:00,78.9,46.5,29.93,West,259,4.0,6.0,32,0.00,,,0.00,582,WeatherCatV1.15B25,2013-04-08 19:56:00,
2013-04-08 16:01:00,79.3,46.0,29.93,WSW,239,2.0,3.0,31,0.00,,,0.00,276,WeatherCatV1.15B25,2013-04-08 20:01:00,
2013-04-08 16:04:00,79.5,46.2,29.92,SSE,152,2.0,3.0,31,0.00,,,0.00,262,WeatherCatV1.15B25,2013-04-08 20:04:00,
2013-04-08 16:06:00,79.5,47.0,29.92,SW,223,1.0,8.0,32,0.00,,,0.00,246,WeatherCatV1.15B25,2013-04-08 20:06:00,
2013-04-08 16:09:00,79.5,46.2,29.92,NNW,343,1.0,7.0,31,0.00,,,0.00,269,WeatherCatV1.15B25,2013-04-08 20:09:00,
2013-04-08 16:11:00,79.5,47.0,29.92,SW,230,2.0,4.0,32,0.00,,,0.00,257,WeatherCatV1.15B25,2013-04-08 20:11:00,
2013-04-08 16:14:00,79.5,47.0,29.92,SE,129,1.0,5.0,32,0.00,,,0.00,236,WeatherCatV1.15B25,2013-04-08 20:14:00,
2013-04-08 16:16:00,79.5,47.0,29.92,SE,133,2.0,3.0,32,0.00,,,0.00,204,WeatherCatV1.15B25,2013-04-08 20:16:00,
2013-04-08 16:19:00,79.4,46.1,29.92,SSW,198,1.0,5.0,31,0.00,,,0.00,186,WeatherCatV1.15B25,2013-04-08 20:19:00,
2013-04-08 16:24:00,79.2,45.9,29.91,East,100,1.0,4.0,31,0.00,,,0.00,223,WeatherCatV1.15B25,2013-04-08 20:24:00,
2013-04-08 16:29:00,78.9,44.8,29.91,SW,233,2.0,5.0,30,0.00,,,0.00,178,WeatherCatV1.15B25,2013-04-08 20:29:00,
2013-04-08 16:31:00,78.8,46.4,29.92,SSE,150,1.0,3.0,32,0.00,,,0.00,169,WeatherCatV1.15B25,2013-04-08 20:31:00,
2013-04-08 16:34:00,78.6,46.3,29.92,SW,235,0.0,9.0,32,0.00,,,0.00,167,WeatherCatV1.15B25,2013-04-08 20:34:00,
2013-04-08 16:39:00,78.4,46.1,29.91,WSW,246,1.0,6.0,32,0.00,,,0.00,209,WeatherCatV1.15B25,2013-04-08 20:39:00,
2013-04-08 16:41:00,78.4,46.1,29.91,SSW,212,0.0,5.0,32,0.00,,,0.00,225,WeatherCatV1.15B25,2013-04-08 20:41:00,
2013-04-08 16:44:00,78.4,46.9,29.91,SSE,163,1.0,6.0,33,0.00,,,0.00,213,WeatherCatV1.15B25,2013-04-08 20:44:00,
2013-04-08 16:46:00,78.4,46.9,29.91,WSW,258,3.0,3.0,33,0.00,,,0.00,227,WeatherCatV1.15B25,2013-04-08 20:46:00,
2013-04-08 16:51:00,78.8,45.6,29.91,South,187,2.0,2.0,31,0.00,,,0.00,406,WeatherCatV1.15B25,2013-04-08 20:51:00,
2013-04-08 16:54:00,79.3,46.0,29.91,South,173,1.0,4.0,31,0.00,,,0.00,462,WeatherCatV1.15B25,2013-04-08 20:54:00,
2013-04-08 16:59:00,79.8,45.6,29.90,SSE,162,2.0,8.0,30,0.00,,,0.00,380,WeatherCatV1.15B25,2013-04-08 20:59:00,
2013-04-08 17:01:00,80.0,46.6,29.90,SSE,150,3.0,4.0,31,0.00,,,0.00,390,WeatherCatV1.15B25,2013-04-08 21:01:00,
2013-04-08 17:06:00,80.2,46.8,29.91,SSE,165,2.0,4.0,31,0.00,,,0.00,378,WeatherCatV1.15B25,2013-04-08 21:06:00,
2013-04-08 17:09:00,80.1,45.0,29.91,SE,133,0.0,3.0,29,0.00,,,0.00,200,WeatherCatV1.15B25,2013-04-08 21:09:00,
2013-04-08 17:11:00,80.0,44.9,29.91,South,182,2.0,4.0,29,0.00,,,0.00,171,WeatherCatV1.15B25,2013-04-08 21:11:00,
2013-04-08 17:14:00,79.8,45.6,29.91,West,260,1.0,3.0,30,0.00,,,0.00,149,WeatherCatV1.15B25,2013-04-08 21:14:00,
2013-04-08 17:16:00,79.6,44.5,29.91,SSW,203,2.0,4.0,29,0.00,,,0.00,125,WeatherCatV1.15B25,2013-04-08 21:16:00,
2013-04-08 17:19:00,79.3,46.0,29.90,SE,134,1.0,2.0,31,0.00,,,0.00,104,WeatherCatV1.15B25,2013-04-08 21:19:00,
2013-04-08 17:21:00,79.0,44.9,29.90,SE,144,1.0,4.0,30,0.00,,,0.00,100,WeatherCatV1.15B25,2013-04-08 21:21:00,
2013-04-08 17:24:00,78.6,45.4,29.90,South,181,1.0,2.0,31,0.00,,,0.00,98,WeatherCatV1.15B25,2013-04-08 21:24:00,
2013-04-08 17:26:00,78.3,46.0,29.90,SSW,208,1.0,2.0,32,0.00,,,0.00,109,WeatherCatV1.15B25,2013-04-08 21:26:00,
2013-04-08 17:28:00,78.1,46.6,29.90,SSW,213,1.0,3.0,33,0.00,,,0.00,232,WeatherCatV1.15B25,2013-04-08 21:28:00,
2013-04-08 17:33:00,78.2,46.7,29.90,WSW,256,0.0,3.0,33,0.00,,,0.00,424,WeatherCatV1.15B25,2013-04-08 21:33:00,
2013-04-08 17:39:00,78.9,45.7,29.90,South,178,2.0,7.0,31,0.00,,,0.00,441,WeatherCatV1.15B25,2013-04-08 21:39:00,
2013-04-08 17:44:00,79.2,46.8,29.90,WSW,239,4.0,5.0,32,0.00,,,0.00,378,WeatherCatV1.15B25,2013-04-08 21:44:00,
2013-04-08 17:49:00,79.2,45.9,29.89,SE,133,1.0,2.0,31,0.00,,,0.00,151,WeatherCatV1.15B25,2013-04-08 21:49:00,
2013-04-08 17:54:00,78.9,47.3,29.90,South,178,1.0,5.0,33,0.00,,,0.00,114,WeatherCatV1.15B25,2013-04-08 21:54:00,
2013-04-08 17:56:00,78.7,45.5,29.90,SW,223,2.0,4.0,31,0.00,,,0.00,114,WeatherCatV1.15B25,2013-04-08 21:56:00,
2013-04-08 18:01:00,78.5,46.2,29.90,SW,233,2.0,2.0,32,0.00,,,0.00,162,WeatherCatV1.15B25,2013-04-08 22:01:00,
2013-04-08 18:04:00,78.4,45.2,29.90,SW,218,1.0,5.0,31,0.00,,,0.00,95,WeatherCatV1.15B25,2013-04-08 22:04:00,
2013-04-08 18:09:00,78.2,45.1,29.90,WSW,246,4.0,4.0,31,0.00,,,0.00,81,WeatherCatV1.15B25,2013-04-08 22:09:00,
2013-04-08 18:14:00,77.9,44.8,29.90,SW,218,0.0,3.0,31,0.00,,,0.00,77,WeatherCatV1.15B25,2013-04-08 22:14:00,
2013-04-08 18:19:00,77.8,45.6,29.90,WSW,244,1.0,2.0,32,0.00,,,0.00,70,WeatherCatV1.15B25,2013-04-08 22:19:00,
2013-04-08 18:24:00,77.6,45.4,29.90,SW,232,8.0,8.0,32,0.00,,,0.00,60,WeatherCatV1.15B25,2013-04-08 22:24:00,
2013-04-08 18:26:00,77.5,46.1,29.90,SW,233,1.0,10.0,33,0.00,,,0.00,58,WeatherCatV1.15B25,2013-04-08 22:26:00,
2013-04-08 18:31:00,77.3,45.9,29.90,South,187,0.0,3.0,33,0.00,,,0.00,39,WeatherCatV1.15B25,2013-04-08 22:31:00,
2013-04-08 18:36:00,77.1,45.8,29.90,SW,228,0.0,2.0,33,0.00,,,0.00,37,WeatherCatV1.15B25,2013-04-08 22:36:00,
2013-04-08 18:41:00,76.9,45.6,29.90,WSW,252,1.0,1.0,33,0.00,,,0.00,25,WeatherCatV1.15B25,2013-04-08 22:41:00,
2013-04-08 18:46:00,76.7,45.4,29.90,East,88,0.0,0.0,33,0.00,,,0.00,19,WeatherCatV1.15B25,2013-04-08 22:46:00,
2013-04-08 18:51:00,76.5,45.2,29.91,East,88,0.0,0.0,33,0.00,,,0.00,19,WeatherCatV1.15B25,2013-04-08 22:51:00,
2013-04-08 18:56:00,76.3,45.8,29.91,WNW,282,0.0,0.0,34,0.00,,,0.00,14,WeatherCatV1.15B25,2013-04-08 22:56:00,
2013-04-08 18:58:00,76.2,45.8,29.91,North,2,1.0,1.0,34,0.00,,,0.00,12,WeatherCatV1.15B25,2013-04-08 22:58:00,
2013-04-08 19:03:00,76.1,45.7,29.91,South,177,0.0,0.0,34,0.00,,,0.00,12,WeatherCatV1.15B25,2013-04-08 23:03:00,
2013-04-08 19:09:00,75.9,45.5,29.91,SW,217,0.0,0.0,34,0.00,,,0.00,11,WeatherCatV1.15B25,2013-04-08 23:09:00,
2013-04-08 19:14:00,75.7,45.3,29.91,SW,217,0.0,1.0,34,0.00,,,0.00,9,WeatherCatV1.15B25,2013-04-08 23:14:00,
2013-04-08 19:19:00,75.5,45.9,29.91,West,259,0.0,0.0,35,0.00,,,0.00,7,WeatherCatV1.15B25,2013-04-08 23:19:00,
2013-04-08 19:21:00,75.4,45.1,29.91,West,259,0.0,0.0,34,0.00,,,0.00,7,WeatherCatV1.15B25,2013-04-08 23:21:00,
2013-04-08 19:24:00,75.3,45.7,29.91,West,259,0.0,0.0,35,0.00,,,0.00,5,WeatherCatV1.15B25,2013-04-08 23:24:00,
2013-04-08 19:29:00,75.0,45.5,29.91,West,259,0.0,0.0,35,0.00,,,0.00,0,WeatherCatV1.15B25,2013-04-08 23:29:00,
2013-04-08 19:34:00,74.8,45.3,29.91,West,259,0.0,0.0,35,0.00,,,0.00,0,WeatherCatV1.15B25,2013-04-08 23:34:00,
2013-04-08 19:37:00,74.6,46.6,29.91,West,259,0.0,0.0,37,0.00,,,0.00,0,WeatherCatV1.15B25,2013-04-08 23:37:00,
2013-04-08 19:42:00,74.2,46.2,29.91,West,259,1.0,1.0,37,0.00,,,0.00,0,WeatherCatV1.15B25,2013-04-08 23:42:00,
2013-04-08 19:45:00,74.0,46.8,29.91,WSW,258,0.0,1.0,38,0.00,,,0.00,0,WeatherCatV1.15B25,2013-04-08 23:45:00,
2013-04-08 19:50:00,73.7,45.8,29.91,WSW,258,0.0,0.0,37,0.00,,,0.00,0,WeatherCatV1.15B25,2013-04-08 23:50:00,
2013-04-08 19:55:00,73.4,46.9,29.91,WSW,258,0.0,0.0,39,0.00,,,0.00,0,WeatherCatV1.15B25,2013-04-08 23:55:00,
2013-04-08 20:00:00,73.0,47.2,29.91,WSW,258,0.0,1.0,40,0.00,,,0.00,0,WeatherCatV1.15B25,2013-04-09 00:00:00,
2013-04-08 20:05:00,72.5,46.8,29.91,WSW,258,0.0,2.0,40,0.00,,,0.00,0,WeatherCatV1.15B25,2013-04-09 00:05:00,
2013-04-08 20:10:00,72.1,47.1,29.91,West,261,0.0,2.0,41,0.00,,,0.00,0,WeatherCatV1.15B25,2013-04-09 00:10:00,
2013-04-08 20:15:00,71.6,46.6,29.91,West,269,1.0,1.0,41,0.00,,,0.00,0,WeatherCatV1.15B25,2013-04-09 00:15:00,
2013-04-08 20:29:00,71.2,46.9,29.91,West,273,1.0,1.0,42,0.00,,,0.00,0,WeatherCatV1.15B25,2013-04-09 00:29:00,
2013-04-08 20:31:00,70.0,46.5,29.92,WNW,286,2.0,2.0,43,0.00,,,0.00,0,WeatherCatV1.15B25,2013-04-09 00:31:00,
2013-04-08 20:34:00,69.8,46.9,29.92,WNW,298,2.0,3.0,44,0.00,,,0.00,0,WeatherCatV1.15B25,2013-04-09 00:34:00,
2013-04-08 20:39:00,69.4,47.1,29.92,WNW,298,0.0,1.0,45,0.00,,,0.00,0,WeatherCatV1.15B25,2013-04-09 00:39:00,
2013-04-08 20:44:00,68.9,47.3,29.92,WNW,298,0.0,1.0,46,0.00,,,0.00,0,WeatherCatV1.15B25,2013-04-09 00:44:00,
2013-04-08 20:46:00,68.7,46.5,29.92,WNW,298,0.0,0.0,45,0.00,,,0.00,0,WeatherCatV1.15B25,2013-04-09 00:46:00,
2013-04-08 20:49:00,68.5,46.3,29.92,WNW,298,0.0,0.0,45,0.00,,,0.00,0,WeatherCatV1.15B25,2013-04-09 00:49:00,
2013-04-08 20:51:00,68.5,46.3,29.92,WNW,298,0.0,0.0,45,0.00,,,0.00,0,WeatherCatV1.15B25,2013-04-09 00:51:00,
2013-04-08 20:54:00,68.4,46.8,29.92,WNW,293,0.0,1.0,46,0.00,,,0.00,0,WeatherCatV1.15B25,2013-04-09 00:54:00,
2013-04-08 20:56:00,68.4,46.8,29.92,WNW,293,0.0,1.0,46,0.00,,,0.00,0,WeatherCatV1.15B25,2013-04-09 00:56:00,
2013-04-08 20:58:00,68.3,46.7,29.92,WNW,293,0.0,1.0,46,0.00,,,0.00,0,WeatherCatV1.15B25,2013-04-09 00:58:00,
2013-04-08 21:01:00,68.2,46.6,29.92,WNW,293,0.0,0.0,46,0.00,,,0.00,0,WeatherCatV1.15B25,2013-04-09 01:01:00,
2013-04-08 21:02:00,68.2,46.6,29.92,WNW,293,0.0,0.0,46,0.00,,,0.00,0,WeatherCatV1.15B25,2013-04-09 01:02:00,
2013-04-08 21:04:00,68.1,46.5,29.92,WNW,293,0.0,0.0,46,0.00,,,0.00,0,WeatherCatV1.15B25,2013-04-09 01:04:00,
2013-04-08 21:06:00,68.1,46.5,29.92,WNW,293,0.0,1.0,46,0.00,,,0.00,0,WeatherCatV1.15B25,2013-04-09 01:06:00,
2013-04-08 21:13:00,68.0,47.0,29.92,WNW,293,0.0,0.0,47,0.00,,,0.00,0,WeatherCatV1.15B25,2013-04-09 01:13:00,
2013-04-08 21:20:00,67.7,46.7,29.92,WNW,291,1.0,1.0,47,0.00,,,0.00,0,WeatherCatV1.15B25,2013-04-09 01:20:00,
2013-04-08 21:21:00,67.6,46.6,29.92,WNW,291,1.0,1.0,47,0.00,,,0.00,0,WeatherCatV1.15B25,2013-04-09 01:21:00,
2013-04-08 21:24:00,67.3,46.4,29.93,WNW,291,1.0,2.0,47,0.00,,,0.00,0,WeatherCatV1.15B25,2013-04-09 01:24:00,
2013-04-08 21:26:00,67.0,46.7,29.93,WNW,291,1.0,2.0,48,0.00,,,0.00,0,WeatherCatV1.15B25,2013-04-09 01:26:00,
2013-04-08 21:29:00,66.8,46.5,29.93,WNW,291,1.0,2.0,48,0.00,,,0.00,0,WeatherCatV1.15B25,2013-04-09 01:29:00,
2013-04-08 21:34:00,66.3,46.0,29.93,WNW,291,1.0,1.0,48,0.00,,,0.00,0,WeatherCatV1.15B25,2013-04-09 01:34:00,
2013-04-08 21:39:00,66.1,46.4,29.93,WNW,291,0.0,1.0,49,0.00,,,0.00,0,WeatherCatV1.15B25,2013-04-09 01:39:00,
2013-04-08 21:41:00,65.9,46.2,29.93,WNW,291,0.0,1.0,49,0.00,,,0.00,0,WeatherCatV1.15B25,2013-04-09 01:41:00,
2013-04-08 21:44:00,65.8,46.1,29.93,WNW,291,1.0,2.0,49,0.00,,,0.00,0,WeatherCatV1.15B25,2013-04-09 01:44:00,
2013-04-08 21:49:00,65.6,45.9,29.93,WNW,291,1.0,1.0,49,0.00,,,0.00,0,WeatherCatV1.15B25,2013-04-09 01:49:00,
2013-04-08 21:54:00,65.2,46.1,29.93,WNW,291,0.0,1.0,50,0.00,,,0.00,0,WeatherCatV1.15B25,2013-04-09 01:54:00,
2013-04-08 21:59:00,65.2,46.1,29.93,WNW,291,0.0,0.0,50,0.00,,,0.00,0,WeatherCatV1.15B25,2013-04-09 01:59:00,
2013-04-08 22:04:00,64.9,46.3,29.93,WNW,291,0.0,1.0,51,0.00,,,0.00,0,WeatherCatV1.15B25,2013-04-09 02:04:00,
2013-04-08 22:05:00,64.9,46.3,29.93,WNW,291,0.0,1.0,51,0.00,,,0.00,0,WeatherCatV1.15B25,2013-04-09 02:05:00,
2013-04-08 22:09:00,64.8,45.7,29.93,WNW,291,0.0,1.0,50,0.00,,,0.00,0,WeatherCatV1.15B25,2013-04-09 02:09:00,
2013-04-08 22:14:00,64.7,46.1,29.93,WNW,291,0.0,0.0,51,0.00,,,0.00,0,WeatherCatV1.15B25,2013-04-09 02:14:00,
2013-04-08 22:16:00,64.6,46.1,29.93,WNW,291,0.0,0.0,51,0.00,,,0.00,0,WeatherCatV1.15B25,2013-04-09 02:16:00,
2013-04-08 22:21:00,64.5,46.0,29.93,WNW,291,0.0,1.0,51,0.00,,,0.00,0,WeatherCatV1.15B25,2013-04-09 02:21:00,
2013-04-08 22:26:00,64.4,45.9,29.93,WNW,291,0.0,0.0,51,0.00,,,0.00,0,WeatherCatV1.15B25,2013-04-09 02:26:00,
2013-04-08 22:31:00,64.2,45.7,29.93,WNW,291,0.0,0.0,51,0.00,,,0.00,0,WeatherCatV1.15B25,2013-04-09 02:31:00,
2013-04-08 22:36:00,63.9,45.9,29.93,WNW,291,0.0,0.0,52,0.00,,,0.00,0,WeatherCatV1.15B25,2013-04-09 02:36:00,
2013-04-08 22:38:00,63.8,45.8,29.93,WNW,291,0.0,0.0,52,0.00,,,0.00,0,WeatherCatV1.15B25,2013-04-09 02:38:00,
2013-04-08 22:44:00,63.4,46.0,29.93,WNW,291,0.0,0.0,53,0.00,,,0.00,0,WeatherCatV1.15B25,2013-04-09 02:44:00,
2013-04-08 22:46:00,63.2,45.8,29.93,WNW,291,0.0,0.0,53,0.00,,,0.00,0,WeatherCatV1.15B25,2013-04-09 02:46:00,
2013-04-08 22:49:00,63.1,46.2,29.93,WNW,291,0.0,0.0,54,0.00,,,0.00,0,WeatherCatV1.15B25,2013-04-09 02:49:00,
2013-04-08 22:51:00,62.9,46.0,29.93,WNW,291,0.0,0.0,54,0.00,,,0.00,0,WeatherCatV1.15B25,2013-04-09 02:51:00,
2013-04-08 22:54:00,62.8,45.9,29.93,WNW,291,0.0,0.0,54,0.00,,,0.00,0,WeatherCatV1.15B25,2013-04-09 02:54:00,
2013-04-08 22:56:00,62.8,45.9,29.93,WNW,291,0.0,0.0,54,0.00,,,0.00,0,WeatherCatV1.15B25,2013-04-09 02:56:00,
2013-04-08 22:59:00,62.7,45.8,29.93,WNW,291,0.0,0.0,54,0.00,,,0.00,0,WeatherCatV1.15B25,2013-04-09 02:59:00,
2013-04-08 23:04:00,62.4,46.0,29.93,WNW,291,0.0,0.0,55,0.00,,,0.00,0,WeatherCatV1.15B25,2013-04-09 03:04:00,
2013-04-08 23:06:00,62.3,46.4,29.93,WNW,291,0.0,0.0,56,0.00,,,0.00,0,WeatherCatV1.15B25,2013-04-09 03:06:00,
2013-04-08 23:09:00,62.2,45.8,29.93,WNW,291,0.0,0.0,55,0.00,,,0.00,0,WeatherCatV1.15B25,2013-04-09 03:09:00,
2013-04-08 23:11:00,62.1,46.2,29.93,WNW,291,0.0,0.0,56,0.00,,,0.00,0,WeatherCatV1.15B25,2013-04-09 03:11:00,
2013-04-08 23:14:00,62.0,46.1,29.93,WNW,291,0.0,0.0,56,0.00,,,0.00,0,WeatherCatV1.15B25,2013-04-09 03:14:00,
2013-04-08 23:19:00,61.7,45.8,29.93,WNW,291,0.0,0.0,56,0.00,,,0.00,0,WeatherCatV1.15B25,2013-04-09 03:19:00,
2013-04-08 23:21:00,61.6,46.2,29.93,WNW,291,0.0,0.0,57,0.00,,,0.00,0,WeatherCatV1.15B25,2013-04-09 03:21:00,
2013-04-08 23:26:00,61.4,46.0,29.93,WNW,291,0.0,0.0,57,0.00,,,0.00,0,WeatherCatV1.15B25,2013-04-09 03:26:00,
2013-04-08 23:29:00,61.3,45.9,29.93,WNW,291,1.0,1.0,57,0.00,,,0.00,0,WeatherCatV1.15B25,2013-04-09 03:29:00,
2013-04-08 23:34:00,61.0,46.1,29.93,WNW,291,0.0,0.0,58,0.00,,,0.00,0,WeatherCatV1.15B25,2013-04-09 03:34:00,
2013-04-08 23:39:00,60.7,46.3,29.93,WNW,291,0.0,1.0,59,0.00,,,0.00,0,WeatherCatV1.15B25,2013-04-09 03:39:00,
2013-04-08 23:44:00,60.4,46.0,29.93,WNW,291,1.0,2.0,59,0.00,,,0.00,0,WeatherCatV1.15B25,2013-04-09 03:44:00,
2013-04-08 23:49:00,60.2,46.3,29.94,WNW,291,1.0,2.0,60,0.00,,,0.00,0,WeatherCatV1.15B25,2013-04-09 03:49:00,
2013-04-08 23:51:00,60.1,46.2,29.94,WNW,291,0.0,0.0,60,0.00,,,0.00,0,WeatherCatV1.15B25,2013-04-09 03:51:00,
2013-04-08 23:56:00,59.9,46.0,29.94,WNW,291,1.0,1.0,60,0.00,,,0.00,0,WeatherCatV1.15B25,2013-04-09 03:56:00,
2013-04-08 23:59:00,59.8,45.9,29.94,WNW,291,1.0,1.0,60,0.00,,,0.00,0,WeatherCatV1.15B25,2013-04-09 03:59:00,